SCIPGVAC

Guest
Details From SCIP - Mataveri Intl
To GVAC - Sal Amilcar Cabral Intl
Flight Number -
Tags Generated
Created
Modified
Stats Distance 5,678 nm / 10,517 km
Max Altitude 0 ft / 0 m
Waypoints 4
Social Downloads 0
Likes 0
Share VATSIM

Download

Looking for another format? Having issues loading an existing format? Contact us
Advertisement - Login to hide

Notes

Generated

Route

SCIP ILBEM CVS GVAC

ID Type Via Altitude Latitude Longitude Leg Dist Tot Dist Heading (true) Name
O SCIP APT - 0 ft / 0 m -27.15796˚ -109.43667˚ - 0 nm - -
ILBEM FIX - 0 ft / 0 m -1.80150˚ -55.05750˚ 3473 nm 3473 nm 74° / 59° -
CVS VOR - 0 ft / 0 m 16.73677˚ -22.95105˚ 2204 nm 5678 nm 58° / 63° SAL VOR-DME
O GVAC APT - 0 ft / 0 m 16.73667˚ -22.95800˚ 0 nm 5678 nm 269° / 269° -

Altitude Profile

Advertisement - Login to hide

Weather


0- 5 10 15 20 25 30 35+ Temperature / ° C

Clouds and Precipitation
Forecast for 2018-05-27 18:00 UTC. Updated 4 hours ago

Ground ~20,000 ft ~40,000 ft Winds

SCIP

Details ICAO SCIP (IPC)
Name Mataveri Intl
Region Chile
Timezone Pacific/Easter (UTC-6.0)
Stats Elevation 227 ft / 69 m (AMSL)
Location -27.164790° -109.421829°
Runways 1
Magnetic Variation 15.089° E

METAR

SCIP 272100Z 31017KT 9999 BKN015 OVC040 24/21 Q1010 TEMPO 5000 SHRA

Decode

TAF

TAF SCIP 271630Z 2718/2818 30015KT 5000 RA/SHRA SCT007 BKN015 OVC030 TX21/2718Z TN18/2812Z TEMPO 2720/2802 32020KT 3000 +RA/+SHRA SCT005 BKN010 OVC020 BECMG 2806/2808 29010KT 9999 NSW SCT020 SCT080 TEMPO 2809/2812 27015KT 6000 -SHRA BKN020

Decode

Departure Runways

ID Width Length Bearing (true) Bearing (mag) Surface Threshold Offset Overrun Length
10 145 ft / 44 m 10,848 ft / 3,306 m 117.35° 102.26° Asphalt 0 ft / 0 m 355 ft / 108 m
28 145 ft / 44 m 10,848 ft / 3,306 m 297.33° 282.24° Asphalt 0 ft / 0 m 95 ft / 29 m

GVAC

Details ICAO GVAC (SID)
Name Sal Amilcar Cabral Intl
Region Cape Verde
Timezone Atlantic/Cape_Verde (UTC-1.0)
Stats Elevation 177 ft / 54 m (AMSL)
Location 16.738208° -22.950500°
Runways 2
Magnetic Variation 9.188° W

METAR

GVAC 272100Z 04016KT 9999 BKN014 21/17 Q1017 NOSIG

Decode

TAF

TAF GVAC 271700Z 2718/2824 04015KT 9999 BKN014

Decode

Destination Runways

ID Width Length Bearing (true) Bearing (mag) Surface Threshold Offset Overrun Length
01 148 ft / 45 m 10,826 ft / 3,300 m 359.69° 8.88° Asphalt 885 ft / 270 m 0 ft / 0 m
07 148 ft / 45 m 4,892 ft / 1,491 m 57.69° 66.88° Asphalt 200 ft / 61 m 0 ft / 0 m
19 148 ft / 45 m 10,826 ft / 3,300 m 179.69° 188.88° Asphalt 800 ft / 244 m 0 ft / 0 m
25 148 ft / 45 m 4,892 ft / 1,491 m 237.69° 246.88° Asphalt 200 ft / 61 m 0 ft / 0 m

Approach Navaids

Runway Type Ident Frequency Range Bearing (true) Bearing (mag) Slope Elevation
01 Localiser SL 109.90 MHz 18 nm / 33 km 359.58° 8.77° - 177 ft / 54 m (AMSL)
01 Glidescope SL 109.90 MHz 10 nm / 19 km 359.69° 8.88° 3.00° 177 ft / 54 m (AMSL)